Time,TemperatureF,DewpointF,PressureIn,WindDirection,WindDirectionDegrees,WindSpeedMPH,WindSpeedGustMPH,Humidity,HourlyPrecipIn,Conditions,Clouds,dailyrainin,SoftwareType,DateUTC
2013-07-28 00:02:00,82.9,52.3,28.75,NNE,22,0.0,0.0,35,0.00,,,0.00,open2300-1.11,2013-07-27 21:02:00,
2013-07-28 00:07:00,82.9,52.3,28.75,NNE,22,0.0,0.0,35,0.00,,,0.00,open2300-1.11,2013-07-27 21:07:00,
2013-07-28 00:17:00,82.6,52.8,28.75,NNE,22,0.0,0.0,36,0.00,,,0.00,open2300-1.11,2013-07-27 21:17:00,
2013-07-28 00:22:00,82.4,52.6,28.75,NNE,22,0.0,0.0,36,0.00,,,0.00,open2300-1.11,2013-07-27 21:22:00,
2013-07-28 00:32:00,82.2,52.4,28.75,NNE,22,0.0,0.0,36,0.00,,,0.00,open2300-1.11,2013-07-27 21:32:00,
2013-07-28 00:37:00,82.2,52.4,28.75,NNE,22,0.0,0.0,36,0.00,,,0.00,open2300-1.11,2013-07-27 21:37:00,
2013-07-28 00:42:00,82.2,52.4,28.75,NNE,22,0.0,0.0,36,0.00,,,0.00,open2300-1.11,2013-07-27 21:42:00,
2013-07-28 00:52:00,82.2,53.2,28.75,NNE,22,0.0,0.0,37,0.00,,,0.00,open2300-1.11,2013-07-27 21:52:00,
2013-07-28 00:57:00,82.0,53.1,28.75,NNE,22,0.0,0.0,37,0.00,,,0.00,open2300-1.11,2013-07-27 21:57:00,
2013-07-28 01:07:00,82.0,53.1,28.75,NNE,22,0.0,0.0,37,0.00,,,0.00,open2300-1.11,2013-07-27 22:07:00,
2013-07-28 01:12:00,81.7,52.8,28.74,NNE,22,0.0,0.0,37,0.00,,,0.00,open2300-1.11,2013-07-27 22:12:00,
2013-07-28 01:17:00,81.7,52.8,28.74,NNE,22,0.0,0.0,37,0.00,,,0.00,open2300-1.11,2013-07-27 22:17:00,
2013-07-28 01:23:00,81.7,52.8,28.75,NNE,22,0.0,0.0,37,0.00,,,0.00,open2300-1.11,2013-07-27 22:23:00,
2013-07-28 01:32:00,81.9,53.7,28.74,NNE,22,0.0,0.0,38,0.00,,,0.00,open2300-1.11,2013-07-27 22:32:00,
2013-07-28 01:37:00,81.9,53.7,28.75,NNE,22,0.0,0.0,38,0.00,,,0.00,open2300-1.11,2013-07-27 22:37:00,
2013-07-28 01:47:00,81.9,53.7,28.74,NNE,22,0.0,0.0,38,0.00,,,0.00,open2300-1.11,2013-07-27 22:47:00,
2013-07-28 01:53:00,81.7,53.5,28.74,NNE,22,0.0,0.0,38,0.00,,,0.00,open2300-1.11,2013-07-27 22:53:00,
2013-07-28 02:02:00,81.9,54.5,28.73,NNE,22,0.0,0.0,39,0.00,,,0.00,open2300-1.11,2013-07-27 23:02:00,
2013-07-28 02:07:00,81.7,54.3,28.73,NNE,22,0.0,0.0,39,0.00,,,0.00,open2300-1.11,2013-07-27 23:07:00,
2013-07-28 02:12:00,81.7,54.3,28.74,NNE,22,0.0,0.0,39,0.00,,,0.00,open2300-1.11,2013-07-27 23:12:00,
2013-07-28 02:18:00,81.7,55.1,28.73,NNE,22,0.0,0.0,40,0.00,,,0.00,open2300-1.11,2013-07-27 23:18:00,
2013-07-28 02:27:00,81.5,55.0,28.74,North,0,0.0,0.0,40,0.00,,,0.00,open2300-1.11,2013-07-27 23:27:00,
2013-07-28 02:37:00,81.3,54.0,28.74,North,0,0.0,0.0,39,0.00,,,0.00,open2300-1.11,2013-07-27 23:37:00,
2013-07-28 02:42:00,81.3,54.0,28.74,North,0,0.0,0.0,39,0.00,,,0.00,open2300-1.11,2013-07-27 23:42:00,
2013-07-28 02:57:00,81.1,54.6,28.74,North,0,0.0,0.0,40,0.00,,,0.00,open2300-1.11,2013-07-27 23:57:00,
2013-07-28 03:07:00,81.1,55.2,28.74,North,0,0.0,0.0,41,0.00,,,0.00,open2300-1.11,2013-07-28 00:07:00,
2013-07-28 03:13:00,81.0,55.1,28.74,North,0,0.0,0.0,41,0.00,,,0.00,open2300-1.11,2013-07-28 00:13:00,
2013-07-28 03:22:00,81.0,55.1,28.74,North,0,0.0,0.0,41,0.00,,,0.00,open2300-1.11,2013-07-28 00:22:00,
2013-07-28 03:27:00,81.0,55.1,28.73,North,0,0.0,0.0,41,0.00,,,0.00,open2300-1.11,2013-07-28 00:27:00,
2013-07-28 03:37:00,81.0,55.7,28.74,North,0,0.0,0.0,42,0.00,,,0.00,open2300-1.11,2013-07-28 00:37:00,
2013-07-28 03:47:00,80.8,55.5,28.74,North,0,0.0,0.0,42,0.00,,,0.00,open2300-1.11,2013-07-28 00:47:00,
2013-07-28 03:57:00,80.8,55.5,28.74,North,0,0.0,0.0,42,0.00,,,0.00,open2300-1.11,2013-07-28 00:57:00,
2013-07-28 04:07:00,80.6,55.4,28.74,North,0,0.0,0.0,42,0.00,,,0.00,open2300-1.11,2013-07-28 01:07:00,
2013-07-28 04:12:00,80.4,55.8,28.74,North,0,0.0,0.0,43,0.00,,,0.00,open2300-1.11,2013-07-28 01:12:00,
2013-07-28 04:22:00,80.4,55.8,28.74,North,0,0.0,0.0,43,0.00,,,0.00,open2300-1.11,2013-07-28 01:22:00,
2013-07-28 04:27:00,80.2,55.7,28.74,North,0,0.0,0.0,43,0.00,,,0.00,open2300-1.11,2013-07-28 01:27:00,
2013-07-28 04:37:00,79.9,55.9,28.74,North,0,0.0,0.0,44,0.00,,,0.00,open2300-1.11,2013-07-28 01:37:00,
2013-07-28 04:47:00,79.7,55.8,28.74,North,0,0.0,0.0,44,0.00,,,0.00,open2300-1.11,2013-07-28 01:47:00,
2013-07-28 04:52:00,79.7,56.4,28.74,North,0,0.0,0.0,45,0.00,,,0.00,open2300-1.11,2013-07-28 01:52:00,
2013-07-28 04:57:00,79.5,56.8,28.75,North,0,0.0,0.0,46,0.00,,,0.00,open2300-1.11,2013-07-28 01:57:00,
2013-07-28 05:08:00,79.5,56.8,28.75,North,0,0.0,0.0,46,0.00,,,0.00,open2300-1.11,2013-07-28 02:08:00,
2013-07-28 05:17:00,79.3,56.7,28.75,North,0,0.0,0.0,46,0.00,,,0.00,open2300-1.11,2013-07-28 02:17:00,
2013-07-28 05:22:00,79.3,56.7,28.75,North,0,0.0,0.0,46,0.00,,,0.00,open2300-1.11,2013-07-28 02:22:00,
2013-07-28 05:32:00,79.2,57.1,28.75,North,0,0.0,0.0,47,0.00,,,0.00,open2300-1.11,2013-07-28 02:32:00,
2013-07-28 05:42:00,79.2,57.1,28.75,North,0,0.0,0.0,47,0.00,,,0.00,open2300-1.11,2013-07-28 02:42:00,
2013-07-28 05:52:00,79.2,57.1,28.75,North,0,0.0,0.0,47,0.00,,,0.00,open2300-1.11,2013-07-28 02:52:00,
2013-07-28 05:57:00,79.0,57.0,28.75,North,0,0.0,0.0,47,0.00,,,0.00,open2300-1.11,2013-07-28 02:57:00,
2013-07-28 06:07:00,79.0,57.0,28.76,North,0,0.0,0.0,47,0.00,,,0.00,open2300-1.11,2013-07-28 03:07:00,
2013-07-28 06:12:00,79.0,57.6,28.76,North,0,0.0,0.0,48,0.00,,,0.00,open2300-1.11,2013-07-28 03:12:00,
2013-07-28 06:18:00,79.0,57.0,28.76,North,0,0.0,0.0,47,0.00,,,0.00,open2300-1.11,2013-07-28 03:18:00,
2013-07-28 06:27:00,78.8,57.4,28.76,North,0,0.0,0.0,48,0.00,,,0.00,open2300-1.11,2013-07-28 03:27:00,
2013-07-28 06:32:00,78.8,57.4,28.77,North,0,0.0,0.0,48,0.00,,,0.00,open2300-1.11,2013-07-28 03:32:00,
2013-07-28 06:37:00,78.6,57.2,28.77,North,0,0.0,0.0,48,0.00,,,0.00,open2300-1.11,2013-07-28 03:37:00,
2013-07-28 06:42:00,78.6,57.2,28.77,North,0,0.0,0.0,48,0.00,,,0.00,open2300-1.11,2013-07-28 03:42:00,
2013-07-28 06:52:00,78.8,57.4,28.77,North,0,0.0,0.0,48,0.00,,,0.00,open2300-1.11,2013-07-28 03:52:00,
2013-07-28 07:02:00,79.0,57.0,28.77,NNE,22,0.0,0.0,47,0.00,,,0.00,open2300-1.11,2013-07-28 04:02:00,
2013-07-28 07:07:00,79.0,57.0,28.77,NNE,22,0.0,0.0,47,0.00,,,0.00,open2300-1.11,2013-07-28 04:07:00,
2013-07-28 07:12:00,79.0,55.7,28.78,North,0,0.0,0.0,45,0.00,,,0.00,open2300-1.11,2013-07-28 04:12:00,
2013-07-28 07:17:00,79.0,55.7,28.77,NNE,22,0.0,4.2,45,0.00,,,0.00,open2300-1.11,2013-07-28 04:17:00,
2013-07-28 07:27:00,79.3,56.1,28.78,NNE,22,0.0,0.0,45,0.00,,,0.00,open2300-1.11,2013-07-28 04:27:00,
2013-07-28 07:32:00,79.3,55.5,28.77,NNE,22,0.0,0.0,44,0.00,,,0.00,open2300-1.11,2013-07-28 04:32:00,
2013-07-28 07:37:00,79.5,55.5,28.77,NNE,22,0.0,0.0,44,0.00,,,0.00,open2300-1.11,2013-07-28 04:37:00,
2013-07-28 07:42:00,79.5,55.6,28.77,NNE,22,0.0,0.0,44,0.00,,,0.00,open2300-1.11,2013-07-28 04:42:00,
2013-07-28 07:47:00,79.5,55.6,28.77,NNE,22,0.0,0.0,44,0.00,,,0.00,open2300-1.11,2013-07-28 04:47:00,
2013-07-28 07:52:00,79.7,55.2,28.78,NNE,22,0.0,0.0,43,0.00,,,0.00,open2300-1.11,2013-07-28 04:52:00,
2013-07-28 08:02:00,79.7,55.2,28.78,NNE,22,0.0,0.0,43,0.00,,,0.00,open2300-1.11,2013-07-28 05:02:00,
2013-07-28 08:12:00,79.9,55.3,28.78,NNE,22,0.0,0.0,43,0.00,,,0.00,open2300-1.11,2013-07-28 05:12:00,
2013-07-28 08:17:00,80.1,55.5,28.79,NNE,22,0.0,1.6,43,0.00,,,0.00,open2300-1.11,2013-07-28 05:17:00,
2013-07-28 08:22:00,80.2,55.7,28.79,NNE,22,0.0,0.0,43,0.00,,,0.00,open2300-1.11,2013-07-28 05:22:00,
2013-07-28 08:27:00,80.2,55.7,28.79,NNE,22,0.0,0.0,43,0.00,,,0.00,open2300-1.11,2013-07-28 05:27:00,
2013-07-28 08:32:00,80.4,55.8,28.79,NNE,22,0.0,0.0,43,0.00,,,0.00,open2300-1.11,2013-07-28 05:32:00,
2013-07-28 08:42:00,80.6,55.4,28.79,NNE,22,0.0,0.0,42,0.00,,,0.00,open2300-1.11,2013-07-28 05:42:00,
2013-07-28 08:47:00,80.8,55.5,28.79,NNE,22,0.0,0.0,42,0.00,,,0.00,open2300-1.11,2013-07-28 05:47:00,
2013-07-28 08:57:00,81.1,55.2,28.80,NNE,22,0.0,0.0,41,0.00,,,0.00,open2300-1.11,2013-07-28 05:57:00,
2013-07-28 09:02:00,81.1,54.6,28.79,NNE,22,0.0,0.0,40,0.00,,,0.00,open2300-1.11,2013-07-28 06:02:00,
2013-07-28 09:07:00,81.3,54.8,28.80,NNE,22,0.0,0.0,40,0.00,,,0.00,open2300-1.11,2013-07-28 06:07:00,
2013-07-28 09:17:00,81.7,55.1,28.80,NNE,22,0.0,6.9,40,0.00,,,0.00,open2300-1.11,2013-07-28 06:17:00,
2013-07-28 09:22:00,81.7,55.1,28.80,NNE,22,0.0,2.5,40,0.00,,,0.00,open2300-1.11,2013-07-28 06:22:00,
2013-07-28 09:27:00,81.9,55.3,28.80,NNE,22,0.0,0.0,40,0.00,,,0.00,open2300-1.11,2013-07-28 06:27:00,
2013-07-28 09:38:00,82.0,55.4,28.79,NNE,22,0.0,0.0,40,0.00,,,0.00,open2300-1.11,2013-07-28 06:38:00,
2013-07-28 09:47:00,82.2,54.8,28.79,NNE,22,0.0,1.6,39,0.00,,,0.00,open2300-1.11,2013-07-28 06:47:00,
2013-07-28 09:52:00,82.6,55.9,28.79,NNE,22,0.0,2.2,40,0.00,,,0.00,open2300-1.11,2013-07-28 06:52:00,
2013-07-28 10:02:00,82.8,56.1,28.80,NNE,22,2.9,2.9,40,0.00,,,0.00,open2300-1.11,2013-07-28 07:02:00,
2013-07-28 10:07:00,82.8,56.1,28.80,NNE,22,5.6,5.6,40,0.00,,,0.00,open2300-1.11,2013-07-28 07:07:00,
2013-07-28 10:17:00,82.9,56.9,28.80,NNE,22,0.0,0.0,41,0.00,,,0.00,open2300-1.11,2013-07-28 07:17:00,
2013-07-28 10:22:00,83.1,57.0,28.80,NE,45,3.1,3.1,41,0.00,,,0.00,open2300-1.11,2013-07-28 07:22:00,
2013-07-28 10:27:00,83.1,57.0,28.80,NE,45,0.0,3.1,41,0.00,,,0.00,open2300-1.11,2013-07-28 07:27:00,
2013-07-28 10:32:00,83.3,57.2,28.80,NNE,22,2.5,3.1,41,0.00,,,0.00,open2300-1.11,2013-07-28 07:32:00,
2013-07-28 10:42:00,83.3,57.2,28.80,NNE,22,4.2,4.7,41,0.00,,,0.00,open2300-1.11,2013-07-28 07:42:00,
2013-07-28 10:52:00,83.7,57.5,28.80,NE,45,0.0,3.8,41,0.00,,,0.00,open2300-1.11,2013-07-28 07:52:00,
2013-07-28 10:57:00,83.7,57.5,28.80,NNE,22,0.0,1.6,41,0.00,,,0.00,open2300-1.11,2013-07-28 07:57:00,
2013-07-28 11:02:00,83.8,57.7,28.80,NE,45,6.0,6.0,41,0.00,,,0.00,open2300-1.11,2013-07-28 08:02:00,
2013-07-28 11:07:00,84.0,58.5,28.80,NNE,22,5.6,6.0,42,0.00,,,0.00,open2300-1.11,2013-07-28 08:07:00,
2013-07-28 11:12:00,84.0,58.5,28.80,NNE,22,0.0,5.6,42,0.00,,,0.00,open2300-1.11,2013-07-28 08:12:00,
2013-07-28 11:22:00,84.4,58.8,28.81,NE,45,0.0,5.8,42,0.00,,,0.00,open2300-1.11,2013-07-28 08:22:00,
2013-07-28 11:32:00,84.6,58.3,28.81,NNE,22,1.6,1.6,41,0.00,,,0.00,open2300-1.11,2013-07-28 08:32:00,
2013-07-28 11:42:00,84.7,58.5,28.80,NE,45,3.4,3.4,41,0.00,,,0.00,open2300-1.11,2013-07-28 08:42:00,
2013-07-28 11:47:00,84.7,57.9,28.81,North,0,1.6,3.4,40,0.00,,,0.00,open2300-1.11,2013-07-28 08:47:00,
2013-07-28 11:57:00,84.9,58.0,28.81,NE,45,0.0,0.0,40,0.00,,,0.00,open2300-1.11,2013-07-28 08:57:00,
2013-07-28 12:02:00,85.3,58.3,28.81,NNE,22,3.4,3.4,40,0.00,,,0.00,open2300-1.11,2013-07-28 09:02:00,
2013-07-28 12:08:00,85.3,58.3,28.81,NNE,22,0.0,6.3,40,0.00,,,0.00,open2300-1.11,2013-07-28 09:08:00,
2013-07-28 12:17:00,85.3,57.6,28.81,NNE,22,0.0,0.0,39,0.00,,,0.00,open2300-1.11,2013-07-28 09:17:00,
2013-07-28 12:27:00,85.5,57.7,28.81,NNE,22,0.0,0.7,39,0.00,,,0.00,open2300-1.11,2013-07-28 09:27:00,
2013-07-28 12:32:00,85.6,57.9,28.81,NNE,22,0.0,0.0,39,0.00,,,0.00,open2300-1.11,2013-07-28 09:32:00,
2013-07-28 12:42:00,85.8,57.2,28.81,NNE,22,2.9,2.9,38,0.00,,,0.00,open2300-1.11,2013-07-28 09:42:00,
2013-07-28 12:47:00,85.8,57.2,28.81,NNE,22,0.0,2.9,38,0.00,,,0.00,open2300-1.11,2013-07-28 09:47:00,
2013-07-28 12:57:00,85.8,56.5,28.81,NNE,22,0.0,2.9,37,0.00,,,0.00,open2300-1.11,2013-07-28 09:57:00,
2013-07-28 13:02:00,86.0,56.6,28.81,NNE,22,0.0,2.0,37,0.00,,,0.00,open2300-1.11,2013-07-28 10:02:00,
2013-07-28 13:07:00,86.2,56.8,28.81,NE,45,0.0,0.0,37,0.00,,,0.00,open2300-1.11,2013-07-28 10:07:00,
2013-07-28 13:17:00,86.5,56.3,28.81,North,0,0.0,0.9,36,0.00,,,0.00,open2300-1.11,2013-07-28 10:17:00,
2013-07-28 13:22:00,86.7,57.2,28.81,NNE,22,0.0,0.0,37,0.00,,,0.00,open2300-1.11,2013-07-28 10:22:00,
2013-07-28 13:28:00,86.9,56.6,28.81,NNE,22,0.0,0.0,36,0.00,,,0.00,open2300-1.11,2013-07-28 10:28:00,
2013-07-28 13:37:00,87.4,57.1,28.80,NNE,22,4.9,4.9,36,0.00,,,0.00,open2300-1.11,2013-07-28 10:37:00,
2013-07-28 13:42:00,87.6,57.2,28.80,NNE,22,0.0,4.9,36,0.00,,,0.00,open2300-1.11,2013-07-28 10:42:00,
2013-07-28 13:52:00,88.0,57.5,28.80,NNE,22,0.0,0.0,36,0.00,,,0.00,open2300-1.11,2013-07-28 10:52:00,
2013-07-28 13:57:00,88.0,57.5,28.81,NNE,22,0.0,0.0,36,0.00,,,0.00,open2300-1.11,2013-07-28 10:57:00,
2013-07-28 14:07:00,88.9,57.5,28.80,NE,45,0.0,1.3,35,0.00,,,0.00,open2300-1.11,2013-07-28 11:07:00,
2013-07-28 14:12:00,89.2,57.8,28.80,NNE,22,4.5,4.5,35,0.00,,,0.00,open2300-1.11,2013-07-28 11:12:00,
2013-07-28 14:22:00,89.8,57.5,28.80,NNE,22,0.0,5.1,34,0.00,,,0.00,open2300-1.11,2013-07-28 11:22:00,
2013-07-28 14:32:00,90.0,57.6,28.80,NNE,22,0.0,1.6,34,0.00,,,0.00,open2300-1.11,2013-07-28 11:32:00,
2013-07-28 14:37:00,90.1,57.8,28.80,NE,45,1.6,1.6,34,0.00,,,0.00,open2300-1.11,2013-07-28 11:37:00,
2013-07-28 14:42:00,90.3,58.0,28.80,NNE,22,0.2,1.6,34,0.00,,,0.00,open2300-1.11,2013-07-28 11:42:00,
2013-07-28 14:47:00,90.5,57.3,28.80,NE,45,0.0,1.8,33,0.00,,,0.00,open2300-1.11,2013-07-28 11:47:00,
2013-07-28 14:52:00,90.5,57.3,28.80,NNE,22,0.0,0.0,33,0.00,,,0.00,open2300-1.11,2013-07-28 11:52:00,
2013-07-28 15:02:00,90.3,57.2,28.80,NNE,22,6.5,6.5,33,0.00,,,0.00,open2300-1.11,2013-07-28 12:02:00,
2013-07-28 15:07:00,90.3,57.2,28.80,NNE,22,4.2,6.5,33,0.00,,,0.00,open2300-1.11,2013-07-28 12:07:00,
2013-07-28 15:12:00,90.3,58.0,28.80,NNE,22,0.0,7.4,34,0.00,,,0.00,open2300-1.11,2013-07-28 12:12:00,
2013-07-28 15:17:00,90.1,57.0,28.80,NNE,22,0.0,0.0,33,0.00,,,0.00,open2300-1.11,2013-07-28 12:17:00,
2013-07-28 15:22:00,90.3,58.0,28.80,NE,45,0.0,0.0,34,0.00,,,0.00,open2300-1.11,2013-07-28 12:22:00,
2013-07-28 15:27:00,90.3,58.0,28.80,NE,45,0.0,4.0,34,0.00,,,0.00,open2300-1.11,2013-07-28 12:27:00,
2013-07-28 15:37:00,90.7,58.3,28.80,NNE,22,1.1,2.9,34,0.00,,,0.00,open2300-1.11,2013-07-28 12:37:00,
2013-07-28 15:42:00,90.7,58.3,28.80,NNE,22,0.0,1.1,34,0.00,,,0.00,open2300-1.11,2013-07-28 12:42:00,
2013-07-28 15:52:00,90.7,58.3,28.80,NNE,22,0.0,6.5,34,0.00,,,0.00,open2300-1.11,2013-07-28 12:52:00,
2013-07-28 15:59:00,91.0,58.6,28.80,NNE,22,2.0,2.0,34,0.00,,,0.00,open2300-1.11,2013-07-28 12:59:00,
2013-07-28 16:07:00,91.2,58.8,28.80,NNE,22,1.1,3.1,34,0.00,,,0.00,open2300-1.11,2013-07-28 13:07:00,
2013-07-28 16:12:00,91.2,58.8,28.79,NNE,22,4.5,5.4,34,0.00,,,0.00,open2300-1.11,2013-07-28 13:12:00,
2013-07-28 16:17:00,91.4,58.1,28.80,NNE,22,0.0,4.5,33,0.00,,,0.00,open2300-1.11,2013-07-28 13:17:00,
2013-07-28 16:27:00,91.6,57.5,28.79,NNE,22,0.0,6.5,32,0.00,,,0.00,open2300-1.11,2013-07-28 13:27:00,
2013-07-28 16:34:00,91.9,58.6,28.80,NE,45,0.0,3.1,33,0.00,,,0.00,open2300-1.11,2013-07-28 13:34:00,
2013-07-28 16:42:00,92.3,58.1,28.80,NE,45,6.9,6.9,32,0.00,,,0.00,open2300-1.11,2013-07-28 13:42:00,
2013-07-28 16:52:00,92.8,58.5,28.79,NE,45,2.0,2.0,32,0.00,,,0.00,open2300-1.11,2013-07-28 13:52:00,
2013-07-28 17:02:00,93.6,58.3,28.79,NNE,22,0.0,1.8,31,0.00,,,0.00,open2300-1.11,2013-07-28 14:02:00,
2013-07-28 17:07:00,93.9,57.8,28.79,NNE,22,5.1,5.1,30,0.00,,,0.00,open2300-1.11,2013-07-28 14:07:00,
2013-07-28 17:17:00,93.9,57.8,28.80,North,0,4.9,4.9,30,0.00,,,0.00,open2300-1.11,2013-07-28 14:17:00,
2013-07-28 17:27:00,93.9,57.8,28.80,NNE,22,0.0,4.7,30,0.00,,,0.00,open2300-1.11,2013-07-28 14:27:00,
2013-07-28 17:37:00,94.3,58.2,28.80,ENE,67,0.0,4.0,30,0.00,,,0.00,open2300-1.11,2013-07-28 14:37:00,
2013-07-28 17:42:00,94.5,58.3,28.80,NNE,22,4.5,4.5,30,0.00,,,0.00,open2300-1.11,2013-07-28 14:42:00,
2013-07-28 17:47:00,94.3,58.2,28.80,NNE,22,0.9,4.5,30,0.00,,,0.00,open2300-1.11,2013-07-28 14:47:00,
2013-07-28 17:57:00,94.1,58.0,28.80,NNE,22,1.3,2.9,30,0.00,,,0.00,open2300-1.11,2013-07-28 14:57:00,
2013-07-28 18:02:00,94.1,58.0,28.80,North,0,0.0,1.3,30,0.00,,,0.00,open2300-1.11,2013-07-28 15:02:00,
2013-07-28 18:07:00,94.3,58.2,28.79,NE,45,0.0,1.6,30,0.00,,,0.00,open2300-1.11,2013-07-28 15:07:00,
2013-07-28 18:17:00,94.1,58.0,28.80,NNE,22,0.0,1.1,30,0.00,,,0.00,open2300-1.11,2013-07-28 15:17:00,
2013-07-28 18:27:00,94.1,58.0,28.80,NE,45,0.0,5.1,30,0.00,,,0.00,open2300-1.11,2013-07-28 15:27:00,
2013-07-28 18:37:00,94.1,58.0,28.80,NE,45,2.2,2.2,30,0.00,,,0.00,open2300-1.11,2013-07-28 15:37:00,
2013-07-28 18:42:00,93.9,57.8,28.79,NNE,22,0.0,3.1,30,0.00,,,0.00,open2300-1.11,2013-07-28 15:42:00,
2013-07-28 18:47:00,93.6,57.5,28.80,NNE,22,0.0,0.0,30,0.00,,,0.00,open2300-1.11,2013-07-28 15:47:00,
2013-07-28 18:52:00,93.4,57.4,28.80,NNE,22,0.0,0.0,30,0.00,,,0.00,open2300-1.11,2013-07-28 15:52:00,
2013-07-28 19:02:00,93.6,57.5,28.80,NNE,22,0.0,0.0,30,0.00,,,0.00,open2300-1.11,2013-07-28 16:02:00,
2013-07-28 19:07:00,93.6,57.5,28.80,North,0,0.0,0.0,30,0.00,,,0.00,open2300-1.11,2013-07-28 16:07:00,
2013-07-28 19:19:00,92.8,56.9,28.79,NNE,22,5.1,5.1,30,0.00,,,0.00,open2300-1.11,2013-07-28 16:19:00,
2013-07-28 19:27:00,91.9,56.2,28.80,North,0,0.0,0.0,30,0.00,,,0.00,open2300-1.11,2013-07-28 16:27:00,
2013-07-28 19:32:00,91.9,56.2,28.80,NNE,22,0.0,2.2,30,0.00,,,0.00,open2300-1.11,2013-07-28 16:32:00,
2013-07-28 19:37:00,91.9,56.2,28.80,NNE,22,0.0,0.0,30,0.00,,,0.00,open2300-1.11,2013-07-28 16:37:00,
2013-07-28 19:47:00,90.7,55.9,28.80,NNE,22,0.0,3.6,31,0.00,,,0.00,open2300-1.11,2013-07-28 16:47:00,
2013-07-28 19:52:00,90.1,55.4,28.80,NNE,22,0.0,0.0,31,0.00,,,0.00,open2300-1.11,2013-07-28 16:52:00,
2013-07-28 20:02:00,88.9,55.1,28.80,NNE,22,2.9,6.0,32,0.00,,,0.00,open2300-1.11,2013-07-28 17:02:00,
2013-07-28 20:07:00,88.3,54.6,28.80,NNE,22,1.6,2.9,32,0.00,,,0.00,open2300-1.11,2013-07-28 17:07:00,
2013-07-28 20:12:00,87.8,55.0,28.80,NNE,22,2.2,2.2,33,0.00,,,0.00,open2300-1.11,2013-07-28 17:12:00,
2013-07-28 20:17:00,87.4,54.6,28.80,NE,45,0.0,2.2,33,0.00,,,0.00,open2300-1.11,2013-07-28 17:17:00,
2013-07-28 20:22:00,87.1,55.2,28.80,NNE,22,0.4,0.4,34,0.00,,,0.00,open2300-1.11,2013-07-28 17:22:00,
2013-07-28 20:32:00,86.5,54.7,28.80,NNE,22,4.0,4.0,34,0.00,,,0.00,open2300-1.11,2013-07-28 17:32:00,
2013-07-28 20:47:00,85.8,54.1,28.80,NE,45,1.1,1.1,34,0.00,,,0.00,open2300-1.11,2013-07-28 17:47:00,
2013-07-28 20:52:00,85.6,54.7,28.80,North,0,0.0,1.1,35,0.00,,,0.00,open2300-1.11,2013-07-28 17:52:00,
2013-07-28 21:02:00,85.1,55.0,28.80,NNE,22,0.0,1.8,36,0.00,,,0.00,open2300-1.11,2013-07-28 18:02:00,
2013-07-28 21:07:00,84.9,54.1,28.80,NNE,22,2.0,2.0,35,0.00,,,0.00,open2300-1.11,2013-07-28 18:07:00,
2013-07-28 21:12:00,84.7,53.9,28.80,NE,45,0.0,2.0,35,0.00,,,0.00,open2300-1.11,2013-07-28 18:12:00,
2013-07-28 21:17:00,84.7,53.9,28.81,NNE,22,0.0,4.2,35,0.00,,,0.00,open2300-1.11,2013-07-28 18:17:00,
2013-07-28 21:25:00,84.6,53.7,28.81,NE,45,0.9,0.9,35,0.00,,,0.00,open2300-1.11,2013-07-28 18:25:00,
2013-07-28 21:32:00,84.0,53.3,28.81,NNE,22,0.0,2.0,35,0.00,,,0.00,open2300-1.11,2013-07-28 18:32:00,
2013-07-28 21:37:00,84.0,53.3,28.81,NNE,22,0.0,0.9,35,0.00,,,0.00,open2300-1.11,2013-07-28 18:37:00,
2013-07-28 21:47:00,83.5,52.8,28.81,NNE,22,0.0,1.6,35,0.00,,,0.00,open2300-1.11,2013-07-28 18:47:00,
2013-07-28 21:57:00,83.3,53.4,28.81,NE,45,0.0,0.0,36,0.00,,,0.00,open2300-1.11,2013-07-28 18:57:00,
2013-07-28 22:02:00,83.1,53.2,28.81,NE,45,0.0,0.0,36,0.00,,,0.00,open2300-1.11,2013-07-28 19:02:00,
2013-07-28 22:12:00,82.9,53.9,28.82,NE,45,0.0,0.0,37,0.00,,,0.00,open2300-1.11,2013-07-28 19:12:00,
2013-07-28 22:17:00,82.8,53.7,28.82,NNE,22,0.0,0.9,37,0.00,,,0.00,open2300-1.11,2013-07-28 19:17:00,
2013-07-28 22:25:00,82.6,53.5,28.82,NNE,22,0.0,0.0,37,0.00,,,0.00,open2300-1.11,2013-07-28 19:25:00,
2013-07-28 22:32:00,82.6,54.3,28.82,NNE,22,0.0,0.0,38,0.00,,,0.00,open2300-1.11,2013-07-28 19:32:00,
2013-07-28 22:47:00,82.2,54.0,28.82,NNE,22,0.0,0.0,38,0.00,,,0.00,open2300-1.11,2013-07-28 19:47:00,
2013-07-28 22:52:00,82.2,54.0,28.82,NNE,22,0.0,0.0,38,0.00,,,0.00,open2300-1.11,2013-07-28 19:52:00,
2013-07-28 23:02:00,82.0,53.8,28.82,NNE,22,0.0,0.0,38,0.00,,,0.00,open2300-1.11,2013-07-28 20:02:00,
2013-07-28 23:07:00,82.0,53.8,28.82,NNE,22,0.0,0.0,38,0.00,,,0.00,open2300-1.11,2013-07-28 20:07:00,
2013-07-28 23:12:00,82.0,53.8,28.82,NNE,22,0.0,2.7,38,0.00,,,0.00,open2300-1.11,2013-07-28 20:12:00,
2013-07-28 23:23:00,81.7,53.5,28.82,NNE,22,0.0,0.0,38,0.00,,,0.00,open2300-1.11,2013-07-28 20:23:00,
2013-07-28 23:32:00,81.7,53.5,28.82,NNE,22,0.0,1.1,38,0.00,,,0.00,open2300-1.11,2013-07-28 20:32:00,
2013-07-28 23:42:00,81.5,53.4,28.81,NE,45,0.0,0.0,38,0.00,,,0.00,open2300-1.11,2013-07-28 20:42:00,
2013-07-28 23:52:00,81.5,53.4,28.82,NNE,22,0.0,0.0,38,0.00,,,0.00,open2300-1.11,2013-07-28 20:52:00,